Date,TemperatureHighF,TemperatureAvgF,TemperatureLowF,DewpointHighF,DewpointAvgF,DewpointLowF,HumidityHigh,HumidityAvg,HumidityLow,PressureMaxIn,PressureMinIn,WindSpeedMaxMPH,WindSpeedAvgMPH,GustSpeedMaxMPH,PrecipitationSumIn
2013-1-1,29,24,21,26,22,19,93,92,87,29.72,29.15,2,0,2,0.00
2013-1-2,22,13,5,21,10,2,93,90,87,29.54,29.18,0,0,0,0.00
2013-1-3,13,10,8,10,8,4,91,89,88,29.66,29.55,0,0,0,0.00
2013-1-4,12,6,-1,10,3,-5,90,87,84,29.84,29.63,1,0,1,0.00
2013-1-5,3,-2,-6,0,-5,-10,87,85,83,29.84,29.40,0,0,0,0.00
2013-1-6,7,2,-5,4,-2,-9,88,86,83,29.41,29.25,0,0,0,0.00
2013-1-7,-7,-10,-14,-11,-15,-18,83,82,80,29.52,29.36,0,0,0,0.00
2013-1-8,0,-6,-18,-3,-10,-23,85,83,79,30.11,29.53,0,0,0,0.00
2013-1-9,-1,-8,-13,-5,-12,-17,85,83,81,30.18,29.91,0,0,0,0.00
2013-1-10,11,-1,-10,8,-4,-14,89,85,83,30.07,29.89,0,0,0,0.00
2013-1-11,14,13,12,12,11,10,91,89,89,30.19,30.07,0,0,0,0.00
2013-1-12,20,16,14,18,14,11,93,91,90,30.19,29.72,2,0,2,0.00
2013-1-13,31,28,19,30,26,17,96,94,92,29.76,29.52,0,0,0,0.00
2013-1-14,34,31,27,34,30,25,97,96,95,29.83,29.21,2,0,2,0.01
2013-1-15,30,14,6,28,12,4,93,89,88,30.22,29.85,0,0,0,0.00
2013-1-16,7,2,-5,4,-1,-8,88,87,84,30.22,29.85,0,0,0,0.00
2013-1-17,7,-5,-13,4,-8,-17,88,85,81,30.18,29.80,0,0,0,0.00
2013-1-18,-12,-21,-28,-16,-26,-33,83,79,76,30.43,30.18,0,0,0,0.00
2013-1-19,8,0,-16,0,-5,-20,87,77,63,30.43,30.10,0,0,0,0.00
2013-1-20,12,9,2,8,5,-3,87,83,73,30.11,30.02,0,0,0,0.00
2013-1-21,12,9,3,8,6,0,87,84,80,30.14,30.06,0,0,0,0.00
2013-1-22,10,8,7,4,3,2,79,78,77,29.81,29.75,2,0,2,0.00
2013-1-23,9,7,4,3,-1,-6,78,70,63,29.74,29.62,6,1,6,0.00
2013-1-24,3,-3,-10,-4,-8,-15,83,79,66,29.85,29.68,4,1,4,0.00
2013-1-25,-9,-29,-39,-13,-34,-44,81,75,72,30.04,29.85,0,0,0,0.00
2013-1-26,-27,-36,-45,-32,-41,-51,76,73,71,30.18,30.04,0,0,0,0.00
2013-1-27,-35,-43,-48,-41,-48,-54,73,71,70,30.62,30.18,0,0,0,0.00
2013-1-28,-13,-40,-58,-18,-45,-63,80,72,69,30.64,30.07,1,0,1,0.00
2013-1-29,-5,-10,-18,-9,-15,-23,82,80,78,30.07,29.90,4,0,4,0.00
2013-1-30,8,3,-7,4,-1,-12,85,82,79,29.95,29.69,1,0,1,0.00
2013-1-31,12,8,3,8,4,0,87,85,83,30.12,29.72,1,0,1,0.00